Location: Banff
(51.1670°N, 115.5670°W)
Time: 23:52:29
(UTC-07:00)

Amateur Radio Satellites - All Passes

Search period start: 27 November 2014 23:22
Search period end: 28 November 2014 23:22
Location: Banff, 51.1670°N, 115.5670°W

Satellite Date Start Highest point End Downlink Frequencies (MHz)
Time Altitude Azimuth
FUNcube-1 27 Nov 23:27:21 23:29:38 14° 272° (W) 23:31:55 145.935
AISAT 27 Nov 23:27:44 23:31:10 21° 268° (W) 23:34:35 437.250
BEESAT 2 27 Nov 23:28:04 23:30:51 17° 341° (NNW) 23:33:39 435.950
50 SAT 27 Nov 23:29:21 23:32:30 22° 267° (W) 23:35:41 437.505
CUBEBUG 1 27 Nov 23:31:29 23:35:45 45° 261° (W) 23:40:02 437.445
TIGRISAT 27 Nov 23:36:54 23:41:20 78° 104° (ESE) 23:45:51 435.000
POPSAT HIP 1 27 Nov 23:39:19 23:43:31 59° 101° (ESE) 23:47:41 437.405
BEESAT 27 Nov 23:44:33 23:47:55 19° 57° (ENE) 23:51:18 436.000
CUSAT 1 27 Nov 23:46:48 23:51:14 69° 76° (ENE) 23:57:15 437.405
UNISAT 6 27 Nov 23:51:48 23:56:14 77° 287° (WNW) 00:00:46 437.425
HUMSAT D 27 Nov 23:57:18 23:58:34 11° 274° (W) 23:59:50 437.325/437.525
AIST 2 28 Nov 00:12:23 00:15:06 16° 344° (NNW) 00:17:50 435.215
POLYITAN 1 28 Nov 00:14:17 00:18:29 63° 288° (WNW) 00:22:40 437.675
QB50P2 28 Nov 00:15:25 00:19:37 62° 289° (WNW) 00:23:48 145.880/145.840
AUBIESAT-1 28 Nov 00:16:52 00:21:03 55° 63° (ENE) 00:25:37 437.475
MaSat-1 28 Nov 00:16:59 00:19:16 62° 240° (WSW) 00:21:35 437.345
DUCHIFAT 1 28 Nov 00:20:04 00:24:13 56° 289° (WNW) 00:28:20 145.980
ANTELSAT 28 Nov 00:21:02 00:25:14 42° 292° (WNW) 00:29:30 437.575/2403.000
DANDE 28 Nov 00:22:16 00:26:34 72° 259° (W) 00:32:26 436.750
M-CUBED/EXP-1 PRIME 28 Nov 00:23:35 00:27:50 68° 66° (ENE) 00:32:28 437.505
TISAT 1 28 Nov 00:30:24 00:34:24 39° 262° (W) 00:38:25 437.305
ISS 28 Nov 00:37:34 00:40:45 49° 157° (SSE) 00:43:58 145.825
ITUPSAT 1 28 Nov 00:39:56 00:44:35 50° 68° (ENE) 00:49:16 437.325
NANOSAT C BR1 28 Nov 00:40:03 00:43:57 37° 293° (WNW) 00:47:50 145.865
RS-15 28 Nov 00:43:50 00:55:02 89° 50° (NE) 01:06:42 29.354- 29.394
ESTCUBE 1 28 Nov 00:45:45 00:46:53 11° 275° (W) 00:48:00 437.505/2401.250
SPROUT 28 Nov 00:47:17 00:51:08 31° 264° (W) 00:55:01 437.525
BUGSAT 1 28 Nov 00:49:35 00:53:19 34° 294° (WNW) 00:56:59 437.445
SWISSCUBE 28 Nov 00:49:52 00:54:38 66° 71° (ENE) 00:59:26 437.505
QB50P1 28 Nov 00:50:25 00:54:07 30° 295° (WNW) 00:57:49 145.935-145.965
BEESAT 3 28 Nov 00:51:19 00:53:14 13° 2° (N) 00:55:09 437.485
PCSat 28 Nov 01:02:32 01:05:44 16° 8° (N) 01:08:56 145.827
BEESAT 2 28 Nov 01:08:45 01:10:46 13° 5° (N) 01:12:47 435.950
KKS-1 28 Nov 01:12:37 01:16:18 26° 62° (ENE) 01:19:59 437.445
TIGRISAT 28 Nov 01:14:49 01:17:36 17° 302° (WNW) 01:20:25 435.000
POPSAT HIP 1 28 Nov 01:16:03 01:19:04 19° 300° (WNW) 01:22:03 437.405
BEESAT 28 Nov 01:20:28 01:25:16 75° 256° (WSW) 01:30:06 436.000
YUBILEINY 28 Nov 01:23:45 01:30:16 24° 76° (ENE) 01:36:45 435.215
UNISAT 6 28 Nov 01:30:23 01:32:21 13° 306° (NW) 01:34:20 437.425
CUSAT 1 28 Nov 01:30:55 01:34:14 19° 269° (W) 01:38:11 437.405
Oscar 19 28 Nov 01:52:07 01:56:58 39° 97° (E) 02:01:48 437.125/150
AIST 2 28 Nov 01:53:04 01:55:24 14° 8° (N) 01:57:44 435.215
AUBIESAT-1 28 Nov 01:53:06 01:56:25 22° 264° (W) 01:59:58 437.475
POLYITAN 1 28 Nov 01:53:11 01:53:37 10° 308° (NW) 01:54:03 437.675
Gurwin Techsat 1B 28 Nov 01:57:47 01:59:54 12° 84° (E) 02:02:00 435.225
M-CUBED/EXP-1 PRIME 28 Nov 02:00:31 02:03:26 18° 266° (W) 02:06:30 437.505
STARS 28 Nov 02:02:59 02:07:14 50° 69° (ENE) 02:11:30 437.465
DANDE 28 Nov 02:09:02 02:09:45 10° 273° (W) 02:10:29 436.750
ISS 28 Nov 02:14:02 02:17:20 81° 356° (N) 02:20:39 145.825
ITUPSAT 1 28 Nov 02:18:45 02:22:44 25° 267° (W) 02:26:45 437.325
SWISSCUBE 28 Nov 02:29:30 02:32:58 20° 270° (W) 02:36:27 437.505
BEESAT 3 28 Nov 02:29:45 02:32:58 21° 26° (NNE) 02:36:11 437.485
PCSat 28 Nov 02:46:14 02:50:58 29° 33° (NNE) 02:55:40 145.827
BEESAT 2 28 Nov 02:47:03 02:50:29 23° 29° (NNE) 02:53:55 435.950
KKS-1 28 Nov 02:48:29 02:52:45 45° 261° (W) 02:57:03 437.445
ITAMSAT 1 28 Nov 02:50:08 02:55:11 50° 100° (E) 03:00:12 435.822/435.867
RS-15 28 Nov 02:56:51 03:06:12 33° 254° (WSW) 03:15:54 29.354- 29.394
BEESAT 28 Nov 03:02:32 03:03:58 11° 275° (W) 03:05:25 436.000
SO-50 28 Nov 03:10:18 03:13:33 20° 113° (ESE) 03:16:53 436.795
YUBILEINY 28 Nov 03:17:05 03:25:54 89° 99° (E) 03:34:44 435.215
Oscar 19 28 Nov 03:31:35 03:36:18 37° 296° (WNW) 03:41:00 437.125/150
AIST 2 28 Nov 03:31:37 03:35:23 28° 32° (NNE) 03:39:08 435.215
Gurwin Techsat 1B 28 Nov 03:35:30 03:40:50 73° 104° (ESE) 03:46:08 435.225
STARS 28 Nov 03:40:36 03:44:00 22° 268° (W) 03:47:26 437.465
ISS 28 Nov 03:50:44 03:54:01 73° 196° (SSW) 03:57:18 145.825
HORYU 2 28 Nov 03:52:42 03:57:06 50° 100° (E) 04:01:28 437.375
AO-7 28 Nov 04:06:25 04:13:43 32° 93° (E) 04:20:57 29.400- 29.500
BEESAT 3 28 Nov 04:07:39 04:11:53 75° 47° (NE) 04:16:03 437.485
MOZHAYETS 4 28 Nov 04:09:09 04:13:32 45° 68° (ENE) 04:17:59
JAS-2 28 Nov 04:19:54 04:23:41 15° 78° (ENE) 04:27:14 435.910
BEESAT 2 28 Nov 04:25:04 04:29:19 87° 230° (SW) 04:33:31 435.950
PCSat 28 Nov 04:29:31 04:34:59 80° 235° (SW) 04:40:24 145.827
ITAMSAT 1 28 Nov 04:30:01 04:34:29 30° 299° (WNW) 04:38:55 435.822/435.867
PRISM 28 Nov 04:32:01 04:34:59 19° 59° (ENE) 04:37:58 437.425
SO-50 28 Nov 04:48:59 04:53:34 77° 314° (NW) 04:58:19 436.795
AIST 2 28 Nov 05:10:05 05:14:24 66° 233° (SW) 05:18:38 435.215
Gurwin Techsat 1B 28 Nov 05:16:17 05:20:19 23° 303° (WNW) 05:24:20 435.225
YUBILEINY 28 Nov 05:16:49 05:24:00 27° 304° (WNW) 05:31:12 435.215
ISS 28 Nov 05:27:42 05:30:19 22° 215° (SW) 05:32:55 145.825
HORYU 2 28 Nov 05:29:55 05:33:31 24° 299° (WNW) 05:37:08 437.375
BEESAT 3 28 Nov 05:46:50 05:49:37 17° 247° (WSW) 05:52:24 437.485
MOZHAYETS 4 28 Nov 05:47:07 05:50:59 26° 267° (W) 05:54:53
STRAND 1 28 Nov 05:47:17 05:52:05 41° 65° (ENE) 05:56:53 437.568
Cubesat XI-IV 28 Nov 05:48:39 05:51:54 16° 87° (E) 05:55:08 437.490
O/OREOS (USA 219) 28 Nov 05:53:34 05:57:40 36° 108° (ESE) 06:01:47 437.305
CUBESAT XI-V 28 Nov 05:57:13 06:01:43 46° 68° (ENE) 06:06:14 437.345
AO-7 28 Nov 05:58:53 06:07:14 75° 295° (WNW) 06:15:34 29.400- 29.500
JAS-2 28 Nov 06:03:04 06:10:18 70° 102° (ESE) 06:16:37 435.910
BEESAT 2 28 Nov 06:04:52 06:06:57 14° 249° (WSW) 06:09:03 435.950
PRISM 28 Nov 06:05:57 06:10:09 62° 258° (WSW) 06:14:23 437.425
PCSat 28 Nov 06:14:27 06:17:33 16° 255° (WSW) 06:20:38 145.827
AIST 1 28 Nov 06:28:09 06:32:25 47° 74° (ENE) 06:36:36
CUTE-I 28 Nov 06:28:22 06:33:08 32° 95° (E) 06:37:52 437.470
SO-50 28 Nov 06:31:05 06:34:52 24° 336° (NNW) 06:38:45 436.795
AIST 2 28 Nov 06:51:48 06:52:11 10° 252° (WSW) 06:52:34 435.215
GONETS M04 28 Nov 07:13:48 07:20:41 27° 77° (ENE) 07:27:35
STRAND 1 28 Nov 07:26:41 07:31:21 34° 264° (W) 07:36:03 437.568
Cubesat XI-IV 28 Nov 07:27:23 07:32:45 88° 287° (WNW) 07:38:04 437.490
O/OREOS (USA 219) 28 Nov 07:33:00 07:37:06 34° 309° (NW) 07:41:13 437.305
CUBESAT XI-V 28 Nov 07:35:22 07:39:22 27° 267° (W) 07:43:23 437.345
JAS-2 28 Nov 07:48:36 07:54:46 31° 305° (NW) 08:00:23 435.910
AO-7 28 Nov 07:52:27 07:58:50 25° 318° (NW) 08:05:12 29.400- 29.500
AIST 1 28 Nov 08:06:27 08:09:47 22° 274° (W) 08:13:05
CUTE-I 28 Nov 08:08:19 08:13:23 45° 294° (WNW) 08:18:24 437.470
SO-50 28 Nov 08:14:00 08:17:01 16° 1° (N) 08:20:05 436.795
CANX-2 28 Nov 08:17:19 08:17:45 10° 85° (E) 08:18:10 2200.000
CUTE 1.7 + AOD 2 28 Nov 08:49:19 08:52:29 20° 91° (E) 08:55:39 437.475
BRITE-PL 28 Nov 08:57:16 09:00:30 22° 92° (E) 09:03:45 437.365/2234.400
DOVE 4 28 Nov 09:00:35 09:02:46 14° 88° (E) 09:04:59 437.250
POPSAT HIP 1 28 Nov 09:04:15 09:06:20 14° 56° (NE) 09:08:26 437.405
TIGRISAT 28 Nov 09:06:08 09:09:03 18° 59° (ENE) 09:11:59 435.000
GONETS M04 28 Nov 09:07:38 09:16:29 85° 280° (W) 09:25:25
Cubesat XI-IV 28 Nov 09:08:36 09:12:09 19° 307° (NW) 09:15:43 437.490
CINEMA 3 28 Nov 09:17:40 09:19:43 13° 88° (E) 09:21:47 145.822/145.860
SEEDS 28 Nov 09:18:36 09:22:28 32° 95° (E) 09:26:19 437.485
UNISAT 6 28 Nov 09:20:36 09:24:03 24° 62° (ENE) 09:27:31 437.425
DELFI C3 28 Nov 09:23:39 09:25:40 13° 87° (E) 09:27:41 145.870
UKube-1 28 Nov 09:26:21 09:28:41 14° 88° (E) 09:31:00 .
HO-68 28 Nov 09:28:07 09:35:06 51° 100° (E) 09:42:01 435.675
AAUSAT CUBESAT 2 28 Nov 09:30:12 09:34:02 32° 96° (E) 09:37:50 437.432
Oscar 11 28 Nov 09:34:55 09:38:12 20° 91° (E) 09:41:28 145.826/435.025
POLYITAN 1 28 Nov 09:37:42 09:41:12 25° 63° (ENE) 09:44:42 437.675
QB50P2 28 Nov 09:38:37 09:42:09 26° 63° (ENE) 09:45:41 145.880/145.840
DUCHIFAT 1 28 Nov 09:42:49 09:46:25 28° 64° (ENE) 09:50:02 145.980
AO-7 28 Nov 09:46:48 09:48:44 11° 344° (NNW) 09:50:40 29.400- 29.500
COMPASS 1 28 Nov 09:47:09 09:51:19 52° 100° (E) 09:55:28 437.405
ANTELSAT 28 Nov 09:48:57 09:52:58 42° 68° (ENE) 09:57:03 437.575/2403.000
CANX-2 28 Nov 09:50:07 09:54:26 79° 103° (ESE) 09:58:45 2200.000
CUTE-I 28 Nov 09:51:42 09:52:13 10° 315° (NW) 09:52:43 437.470
GOMX 1 28 Nov 09:53:10 09:57:16 55° 101° (E) 10:01:27 467.674
SO-50 28 Nov 09:55:10 09:59:09 25° 25° (NNE) 10:03:11 436.795
HUMSAT D 28 Nov 10:00:11 10:00:57 10° 86° (E) 10:01:44 437.325/437.525
NANOSAT C BR1 28 Nov 10:02:12 10:06:12 41° 68° (ENE) 10:10:11 145.865
DX 1 28 Nov 10:03:26 10:07:21 31° 96° (E) 10:11:13 434.975-435.025
UWE-3 28 Nov 10:05:19 10:08:39 22° 92° (E) 10:12:02 435.000/436.395/437.385
BUGSAT 1 28 Nov 10:09:19 10:13:18 41° 68° (ENE) 10:17:15 437.445
CUBEBUG 2 28 Nov 10:10:21 10:14:01 27° 95° (E) 10:17:44 437.445
QB50P1 28 Nov 10:12:20 10:16:27 51° 70° (ENE) 10:20:35 145.935-145.965
CUTE 1.7 + AOD 2 28 Nov 10:24:33 10:28:45 53° 289° (WNW) 10:32:56 437.475
ZACube-1 28 Nov 10:34:09 10:38:03 35° 97° (E) 10:42:01 437.345
BRITE-PL 28 Nov 10:35:21 10:39:18 43° 291° (WNW) 10:43:16 437.365/2234.400
DOVE 4 28 Nov 10:36:55 10:41:05 73° 287° (WNW) 10:45:21 437.250
POPSAT HIP 1 28 Nov 10:37:22 10:41:37 88° 75° (ENE) 10:45:54 437.405
TIGRISAT 28 Nov 10:41:11 10:45:24 63° 258° (WSW) 10:49:40 435.000
VELOX 1 28 Nov 10:44:51 10:48:43 29° 95° (E) 10:52:33 145.980
CINEMA 3 28 Nov 10:53:16 10:57:29 79° 286° (WNW) 11:01:49 145.822/145.860
ESTCUBE 1 28 Nov 10:53:35 10:56:27 16° 89° (E) 10:59:18 437.505/2401.250
SEEDS 28 Nov 10:54:29 10:58:18 32° 294° (WNW) 11:02:07 437.485
UNISAT 6 28 Nov 10:56:34 11:00:39 44° 261° (W) 11:04:47 437.425
DELFI C3 28 Nov 10:57:21 11:01:31 77° 286° (WNW) 11:05:39 145.870
UKube-1 28 Nov 11:01:03 11:05:25 77° 287° (WNW) 11:09:44 .
50 SAT 28 Nov 11:04:11 11:07:58 36° 97° (E) 11:11:45 437.505
AAUSAT CUBESAT 2 28 Nov 11:05:56 11:09:42 32° 294° (WNW) 11:13:29 437.432
GONETS M04 28 Nov 11:07:49 11:14:48 25° 306° (NW) 11:21:52
FUNcube-1 28 Nov 11:08:17 11:12:31 74° 103° (ESE) 11:16:50 145.935
Oscar 11 28 Nov 11:10:26 11:14:41 53° 290° (WNW) 11:18:55 145.826/435.025
AISAT 28 Nov 11:12:31 11:16:52 52° 101° (E) 11:21:10 437.250
POLYITAN 1 28 Nov 11:12:57 11:17:00 42° 262° (W) 11:21:03 437.675
QB50P2 28 Nov 11:13:53 11:17:55 41° 262° (W) 11:21:58 145.880/145.840
CUBEBUG 1 28 Nov 11:15:52 11:19:25 24° 93° (E) 11:22:56 437.445
HO-68 28 Nov 11:16:04 11:22:45 44° 301° (WNW) 11:29:24 435.675
DUCHIFAT 1 28 Nov 11:18:13 11:22:11 38° 262° (W) 11:26:10 145.980
COMPASS 1 28 Nov 11:23:32 11:26:46 22° 299° (WNW) 11:30:00 437.405
YUBILEINY 28 Nov 11:24:59 11:30:30 18° 46° (NE) 11:35:59 435.215
ANTELSAT 28 Nov 11:26:31 11:29:59 24° 267° (W) 11:33:30 437.575/2403.000
CANX-2 28 Nov 11:27:17 11:29:51 16° 302° (WNW) 11:32:25 2200.000
GOMX 1 28 Nov 11:32:09 11:35:07 19° 299° (WNW) 11:38:07 467.674
HUMSAT D 28 Nov 11:33:16 11:37:28 84° 105° (ESE) 11:41:41 437.325/437.525
SO-50 28 Nov 11:35:32 11:40:25 79° 47° (NE) 11:45:20 436.795
AO-7 28 Nov 11:36:45 11:37:48 10° 13° (NNE) 11:38:52 29.400- 29.500
Oscar 19 28 Nov 11:37:11 11:40:34 18° 54° (NE) 11:43:58 437.125/150
NANOSAT C BR1 28 Nov 11:38:43 11:42:15 25° 266° (W) 11:45:47 145.865
DX 1 28 Nov 11:39:40 11:43:37 34° 295° (WNW) 11:47:33 434.975-435.025
UWE-3 28 Nov 11:41:23 11:45:27 47° 290° (WNW) 11:49:35 435.000/436.395/437.385
BUGSAT 1 28 Nov 11:45:26 11:48:57 25° 266° (W) 11:52:28 437.445
CUBEBUG 2 28 Nov 11:46:56 11:50:50 37° 293° (WNW) 11:54:49 437.445
QB50P1 28 Nov 11:49:28 11:52:39 20° 268° (W) 11:55:50 145.935-145.965
TISAT 1 28 Nov 12:10:39 12:14:03 23° 93° (E) 12:17:26 437.305
ZACube-1 28 Nov 12:10:42 12:14:24 30° 295° (WNW) 12:18:08 437.345
POPSAT HIP 1 28 Nov 12:16:33 12:18:10 12° 273° (W) 12:19:48 437.405
DOVE 4 28 Nov 12:17:05 12:18:11 11° 306° (NW) 12:19:16 437.250
VELOX 1 28 Nov 12:21:18 12:25:25 38° 294° (WNW) 12:29:29 145.980
SPROUT 28 Nov 12:28:42 12:32:34 31° 95° (E) 12:36:23 437.525
ESTCUBE 1 28 Nov 12:29:18 12:33:51 72° 288° (WNW) 12:38:21 437.505/2401.250
CINEMA 3 28 Nov 12:32:27 12:34:04 12° 305° (NW) 12:35:41 145.822/145.860
DELFI C3 28 Nov 12:34:41 12:36:07 12° 305° (NW) 12:37:33 145.870
ITAMSAT 1 28 Nov 12:35:29 12:39:32 24° 57° (ENE) 12:43:35 435.822/435.867
UKube-1 28 Nov 12:38:59 12:40:52 13° 307° (NW) 12:42:45 .
50 SAT 28 Nov 12:39:44 12:43:11 27° 296° (WNW) 12:46:37 437.505
FUNcube-1 28 Nov 12:45:49 12:48:25 16° 302° (WNW) 12:51:03 145.935
SWISSCUBE 28 Nov 12:47:26 12:49:07 12° 85° (E) 12:50:47 437.505
AISAT 28 Nov 12:49:45 12:53:13 23° 300° (WNW) 12:56:40 437.250
CUBEBUG 1 28 Nov 12:51:50 12:56:01 45° 292° (WNW) 13:00:09 437.445
HO-68 28 Nov 13:05:28 13:08:43 14° 324° (NW) 13:11:59 435.675
CUSAT 1 28 Nov 13:06:49 13:09:15 38° 97° (E) 13:11:52 437.405
HUMSAT D 28 Nov 13:10:30 13:12:44 14° 303° (WNW) 13:14:58 437.325/437.525
Oscar 19 28 Nov 13:14:08 13:19:16 89° 253° (WSW) 13:24:26 437.125/150
BEESAT 28 Nov 13:16:28 13:20:00 20° 90° (E) 13:23:30 436.000
SO-50 28 Nov 13:16:55 13:20:29 21° 246° (WSW) 13:24:04 436.795
YUBILEINY 28 Nov 13:20:56 13:29:35 60° 73° (ENE) 13:38:08 435.215
AO-7 28 Nov 13:21:35 13:27:33 23° 39° (NE) 13:33:32 29.400- 29.500
HORYU 2 28 Nov 13:22:19 13:24:42 15° 55° (NE) 13:27:06 437.375
Gurwin Techsat 1B 28 Nov 13:22:52 13:27:34 33° 62° (ENE) 13:32:17 435.225
AUBIESAT-1 28 Nov 13:29:54 13:33:52 24° 97° (E) 13:37:44 437.475
M-CUBED/EXP-1 PRIME 28 Nov 13:36:55 13:41:13 29° 99° (E) 13:45:27 437.505
DANDE 28 Nov 13:44:57 13:47:32 68° 284° (WNW) 13:50:15 436.750
TISAT 1 28 Nov 13:46:05 13:50:06 43° 292° (WNW) 13:54:05 437.305
SPROUT 28 Nov 14:04:49 14:08:40 33° 294° (WNW) 14:12:31 437.525
ESTCUBE 1 28 Nov 14:08:02 14:09:57 13° 307° (NW) 14:11:50 437.505/2401.250
ITUPSAT 1 28 Nov 14:13:10 14:17:57 59° 101° (ESE) 14:22:41 437.325
ITAMSAT 1 28 Nov 14:13:24 14:18:36 68° 257° (WSW) 14:23:49 435.822/435.867
O/OREOS (USA 219) 28 Nov 14:19:00 14:22:54 28° 49° (NE) 14:26:48 437.305
SWISSCUBE 28 Nov 14:22:59 14:27:49 78° 104° (ESE) 14:32:37 437.505
KKS-1 28 Nov 14:34:52 14:38:31 24° 93° (E) 14:42:09 437.445
JAS-2 28 Nov 14:37:22 14:42:23 19° 45° (NE) 14:47:19 435.910
BEESAT 28 Nov 14:53:32 14:58:18 63° 290° (WNW) 15:03:01 436.000
HORYU 2 28 Nov 14:56:17 15:00:44 87° 73° (ENE) 15:05:13 437.375
Oscar 19 28 Nov 14:56:32 14:59:22 15° 274° (W) 15:02:14 437.125/150
Gurwin Techsat 1B 28 Nov 15:02:19 15:07:24 46° 261° (W) 15:12:32 435.225
AUBIESAT-1 28 Nov 15:04:19 15:09:10 60° 296° (WNW) 15:13:56 437.475
AO-7 28 Nov 15:10:46 15:18:56 66° 63° (ENE) 15:27:11 29.400- 29.500
M-CUBED/EXP-1 PRIME 28 Nov 15:11:40 15:16:26 49° 298° (WNW) 15:21:08 437.505
RS-15 28 Nov 15:15:31 15:24:31 31° 105° (ESE) 15:33:30 29.354- 29.394
YUBILEINY 28 Nov 15:18:15 15:26:03 39° 276° (W) 15:33:48 435.215
MaSat-1 28 Nov 15:23:10 15:25:54 54° 120° (ESE) 15:28:25 437.345
STARS 28 Nov 15:24:17 15:28:34 49° 100° (E) 15:32:50 437.465
VERMONT LUNAR 28 Nov 15:47:19 15:49:28 15° 175° (S) 15:51:37 437.305
PHONESAT 2.4 28 Nov 15:48:13 15:50:21 15° 171° (S) 15:52:29 2401.200-2431.200
ITUPSAT 1 28 Nov 15:51:43 15:55:30 24° 301° (WNW) 15:59:16 437.325
ITAMSAT 1 28 Nov 15:57:42 15:59:06 11° 277° (W) 16:00:30 435.822/435.867
O/OREOS (USA 219) 28 Nov 15:58:13 16:02:30 46° 249° (WSW) 16:06:47 437.305
SWISSCUBE 28 Nov 16:01:51 16:05:09 19° 304° (NW) 16:08:27 437.505
KKS-1 28 Nov 16:11:08 16:15:23 45° 292° (WNW) 16:19:37 437.445
CUTE-I 28 Nov 16:17:54 16:21:23 18° 53° (NE) 16:24:51 437.470
JAS-2 28 Nov 16:18:21 16:25:58 59° 66° (ENE) 16:33:33 435.910
BEESAT 28 Nov 16:33:24 16:35:15 12° 310° (NW) 16:37:06 436.000
HORYU 2 28 Nov 16:36:03 16:38:04 13° 273° (W) 16:40:06 437.375
AUBIESAT-1 28 Nov 16:40:50 16:43:15 14° 315° (NW) 16:45:40 437.475
M-CUBED/EXP-1 PRIME 28 Nov 16:48:41 16:50:26 12° 317° (NW) 16:52:12 437.505
MaSat-1 28 Nov 16:59:36 17:00:34 11° 317° (NW) 17:01:30 437.345
STARS 28 Nov 17:01:18 17:04:49 24° 299° (WNW) 17:08:20 437.465
AO-7 28 Nov 17:04:46 17:12:15 37° 264° (W) 17:19:50 29.400- 29.500
Cubesat XI-IV 28 Nov 17:15:12 17:20:15 44° 65° (ENE) 17:25:18 437.490
GONETS M04 28 Nov 17:15:26 17:21:30 20° 48° (NE) 17:27:31
RS-15 28 Nov 17:24:35 17:35:32 89° 311° (NW) 17:46:38 29.354- 29.394
VERMONT LUNAR 28 Nov 17:25:19 17:27:05 13° 192° (SSW) 17:28:52 437.305
PHONESAT 2.4 28 Nov 17:26:07 17:28:17 15° 188° (S) 17:30:27 2401.200-2431.200
MOZHAYETS 4 28 Nov 17:36:10 17:40:46 54° 100° (E) 17:45:20
PRISM 28 Nov 17:45:34 17:47:48 14° 88° (E) 17:50:00 437.425
CUTE-I 28 Nov 17:55:21 18:00:44 84° 73° (ENE) 18:06:07 437.470
JAS-2 28 Nov 18:03:58 18:11:13 41° 266° (W) 18:18:31 435.910
HO-68 28 Nov 18:17:35 18:22:19 19° 43° (NE) 18:27:02 435.675
Cubesat XI-IV 28 Nov 18:55:36 19:00:27 34° 264° (W) 19:05:20 437.490
AIST 1 28 Nov 19:04:01 19:07:24 22° 86° (E) 19:10:47
GONETS M04 28 Nov 19:11:35 19:20:25 66° 75° (ENE) 19:29:09
COMPASS 1 28 Nov 19:11:55 19:13:02 11° 54° (NE) 19:14:09 437.405
MOZHAYETS 4 28 Nov 19:13:59 19:17:42 24° 299° (WNW) 19:21:24
CANX-2 28 Nov 19:14:31 19:17:05 16° 58° (ENE) 19:19:40 2200.000
PCSat 28 Nov 19:16:42 19:21:26 32° 113° (ESE) 19:26:13 145.827
PRISM 28 Nov 19:19:38 19:23:54 76° 287° (WNW) 19:28:07 437.425
CUBESAT XI-V 28 Nov 19:26:07 19:30:44 55° 100° (E) 19:35:17 437.345
GOMX 1 28 Nov 19:30:36 19:33:24 17° 59° (ENE) 19:36:08 467.674
STRAND 1 28 Nov 19:31:19 19:36:21 55° 101° (E) 19:41:21 437.568
CUTE-I 28 Nov 19:38:02 19:41:30 17° 272° (W) 19:44:58 437.470
RS-15 28 Nov 19:38:54 19:49:17 46° 340° (NNW) 19:59:56 29.354- 29.394
BEESAT 3 28 Nov 19:45:46 19:49:13 26° 117° (ESE) 19:52:42 437.485
CUTE 1.7 + AOD 2 28 Nov 19:47:29 19:51:04 28° 64° (ENE) 19:54:41 437.475
HO-68 28 Nov 20:01:42 20:08:47 64° 65° (ENE) 20:15:53 435.675
BEESAT 2 28 Nov 20:03:25 20:07:10 34° 120° (ESE) 20:10:58 435.950
DOVE 4 28 Nov 20:11:06 20:14:48 27° 64° (ENE) 20:18:24 437.250
BRITE-PL 28 Nov 20:12:50 20:17:24 48° 70° (ENE) 20:21:41 437.365/2234.400
SEEDS 28 Nov 20:16:02 20:20:01 44° 69° (ENE) 20:24:03 437.485
DELFI C3 28 Nov 20:17:27 20:20:16 18° 60° (ENE) 20:23:06 145.870
CINEMA 3 28 Nov 20:24:27 20:27:49 23° 63° (ENE) 20:31:09 145.822/145.860
UKube-1 28 Nov 20:26:05 20:29:38 25° 61° (ENE) 20:33:12 .
AAUSAT CUBESAT 2 28 Nov 20:26:35 20:30:31 43° 69° (ENE) 20:34:31 437.432
Oscar 11 28 Nov 20:34:42 20:38:29 30° 65° (ENE) 20:42:17 145.826/435.025
FUNcube-1 28 Nov 20:35:21 20:37:51 16° 58° (ENE) 20:40:21 145.935
AIST 1 28 Nov 20:40:31 20:44:47 47° 286° (WNW) 20:49:05
AISAT 28 Nov 20:41:39 20:44:11 15° 55° (NE) 20:46:42 437.250
COMPASS 1 28 Nov 20:43:51 20:48:00 70° 73° (ENE) 20:52:13 437.405
CANX-2 28 Nov 20:48:18 20:52:31 76° 257° (WSW) 20:56:47 2200.000
AIST 2 28 Nov 20:51:22 20:55:28 49° 124° (SE) 20:59:38 435.215
HUMSAT D 28 Nov 20:56:54 20:59:28 16° 59° (ENE) 21:02:02 437.325/437.525
PRISM 28 Nov 20:57:03 20:58:44 12° 306° (NW) 21:00:24 437.425
PCSat 28 Nov 20:59:18 21:04:38 56° 314° (NW) 21:10:00 145.827
DX 1 28 Nov 21:03:57 21:08:13 54° 69° (ENE) 21:12:30 434.975-435.025
CUBESAT XI-V 28 Nov 21:04:11 21:07:52 23° 300° (WNW) 21:11:31 437.345
GOMX 1 28 Nov 21:06:31 21:11:07 75° 257° (WSW) 21:15:28 467.674
UWE-3 28 Nov 21:07:53 21:11:38 33° 66° (ENE) 21:15:24 435.000/436.395/437.385
GONETS M04 28 Nov 21:09:01 21:16:44 36° 278° (W) 21:24:23
STRAND 1 28 Nov 21:11:01 21:15:16 27° 300° (WNW) 21:19:30 437.568
CUBEBUG 2 28 Nov 21:14:01 21:17:59 43° 69° (ENE) 21:21:56 437.445
CUTE 1.7 + AOD 2 28 Nov 21:22:57 21:26:54 38° 263° (W) 21:30:53 437.475
BEESAT 3 28 Nov 21:23:10 21:27:13 52° 318° (NW) 21:31:20 437.485
ZACube-1 28 Nov 21:35:30 21:39:34 53° 71° (ENE) 21:43:38 437.345
BEESAT 2 28 Nov 21:41:26 21:45:24 42° 321° (NW) 21:49:26 435.950
VELOX 1 28 Nov 21:47:37 21:51:56 50° 69° (ENE) 21:56:16 145.980
DOVE 4 28 Nov 21:48:20 21:52:30 39° 262° (W) 21:56:32 437.250
HO-68 28 Nov 21:50:36 21:56:57 33° 266° (W) 22:03:20 435.675
DELFI C3 28 Nov 21:51:09 21:55:11 59° 259° (W) 21:59:16 145.870
BRITE-PL 28 Nov 21:52:18 21:56:09 24° 267° (W) 21:59:48 437.365/2234.400
SEEDS 28 Nov 21:52:43 21:56:04 23° 268° (W) 21:59:28 437.485
RS-15 28 Nov 21:54:18 22:04:40 43° 14° (NNE) 22:15:22 29.354- 29.394
CUSAT 1 28 Nov 21:56:44 21:58:24 12° 61° (ENE) 22:00:13 437.405
50 SAT 28 Nov 21:58:03 22:01:55 47° 70° (ENE) 22:05:48 437.505
ESTCUBE 1 28 Nov 21:58:06 22:02:00 29° 63° (ENE) 22:05:55 437.505/2401.250
CINEMA 3 28 Nov 22:00:45 22:04:52 45° 261° (W) 22:08:54 145.822/145.860
UKube-1 28 Nov 22:01:25 22:05:36 46° 260° (W) 22:09:49 .
AAUSAT CUBESAT 2 28 Nov 22:03:04 22:06:25 23° 268° (W) 22:09:47 437.432
FUNcube-1 28 Nov 22:09:34 22:13:44 73° 257° (WSW) 22:17:54 145.935
Oscar 11 28 Nov 22:10:39 22:14:36 35° 264° (W) 22:18:36 145.826/435.025
AISAT 28 Nov 22:15:43 22:20:12 90° 272° (W) 22:24:42 437.250
CUBEBUG 1 28 Nov 22:17:02 22:21:09 39° 67° (ENE) 22:25:16 437.445
POPSAT HIP 1 28 Nov 22:20:49 22:21:22 10° 85° (E) 22:21:54 437.405
COMPASS 1 28 Nov 22:21:54 22:24:15 15° 272° (W) 22:26:37 437.405
TIGRISAT 28 Nov 22:28:24 22:31:34 19° 91° (E) 22:34:46 435.000
AIST 2 28 Nov 22:30:22 22:34:17 33° 325° (NW) 22:38:14 435.215
HUMSAT D 28 Nov 22:30:43 22:34:50 69° 258° (WSW) 22:38:57 437.325/437.525
DANDE 28 Nov 22:35:28 22:38:43 19° 67° (ENE) 22:42:38 436.750
DX 1 28 Nov 22:41:30 22:44:47 20° 268° (W) 22:48:04 434.975-435.025
UNISAT 6 28 Nov 22:43:28 22:47:14 26° 94° (E) 22:51:02 437.425
UWE-3 28 Nov 22:44:35 22:48:15 29° 265° (W) 22:51:55 435.000/436.395/437.385
PCSat 28 Nov 22:45:13 22:49:14 20° 337° (NNW) 22:53:15 145.827
CUBEBUG 2 28 Nov 22:51:35 22:54:55 23° 267° (W) 22:58:15 437.445
AUBIESAT-1 28 Nov 22:51:55 22:53:57 13° 44° (NE) 22:56:01 437.475
POLYITAN 1 28 Nov 22:54:04 22:57:25 22° 93° (E) 23:00:45 437.675
QB50P2 28 Nov 22:54:45 22:58:08 23° 93° (E) 23:01:30 145.880/145.840
DUCHIFAT 1 28 Nov 22:58:35 23:02:02 24° 93° (E) 23:05:28 145.980
M-CUBED/EXP-1 PRIME 28 Nov 22:58:46 23:01:21 15° 46° (NE) 23:04:01 437.505
BEESAT 3 28 Nov 23:03:32 23:06:22 17° 340° (NNW) 23:09:12 437.485
TISAT 1 28 Nov 23:08:12 23:12:05 35° 66° (ENE) 23:15:58 437.305
ANTELSAT 28 Nov 23:12:18 23:16:37 47° 99° (E) 23:21:01 437.575/2403.000
ZACube-1 28 Nov 23:13:20 23:16:17 19° 269° (W) 23:19:15 437.345
